Regional Weather Roundup
Issued by NWS Green Bay, WI

Home | Current Version | Previous Version | Graphics & Text | Print | Product List | Glossary Off
Versions: 1 2 3 4 5 6 7 8 9 10 11 12 13 14 15 16 17 18 19 20 21 22 23 24 25 26 27 28 29 30 31 32 33 34 35 36 37 38 39 40 41 42 43 44 45 46 47 48 49 50

000
ASUS43 KGRB 271959
RWRGRB

NORTH-CENTRAL AND NORTHEAST WISCONSIN REGIONAL WEATHER ROUNDUP
NATIONAL WEATHER SERVICE GREEN BAY WI
300 PM CDT WED AUG 27 2014

WIZ005-009-010>012-018-019-272100-
NORTH CENTRAL WISCONSIN

CITY           SKY/WX    TMP DP  RH WIND       PRES   REMARKS
IRONWOOD       NOT AVBL
MANITOWISH WTR NOT AVBL
ARBOR VITAE    NOT AVBL
EAGLE RIVER    NOT AVBL
LAND O LAKES   NOT AVBL
RHINELANDER    SUNNY     69  47  45 VRB5      30.20F
PHILLIPS       NOT AVBL
ANTIGO         NOT AVBL
TOMAHAWK       NOT AVBL
MERRILL        NOT AVBL
$$

WIZ013-073-272100-
NORTHEAST WISCONSIN

CITY           SKY/WX    TMP DP  RH WIND       PRES   REMARKS
IRON MOUNTAIN  MOSUNNY   70  47  43 VRB7      30.16F
MARINETTE      MOSUNNY   68  52  56 W3        30.16F
$$

WIZ017-030-035>037-045-272100-
CENTRAL WISCONSIN

CITY           SKY/WX    TMP DP  RH WIND       PRES   REMARKS
MEDFORD        NOT AVBL
WAUSAU         MOSUNNY   72  53  51 W10       30.17F
MOSINEE        NOT AVBL
MARSHFIELD     MOSUNNY   73  56  54 NW12      30.17F
WISC RAPIDS    MOSUNNY   74  56  53 NW7       30.18F
STEVENS POINT  NOT AVBL
WAUPACA        NOT AVBL
SHAWANO        PTSUNNY   73  56  54 W5        30.17F
CLINTONVILLE   NOT AVBL
$$

WIZ038-039-048-051-272100-
FOX VALLEY

CITY           SKY/WX    TMP DP  RH WIND       PRES   REMARKS
NWS GREEN BAY  PTSUNNY   72  57  59 CALM      30.17F
APPLETON       PTSUNNY   70  54  56 VRB6      30.18S
OSHKOSH        MOSUNNY   71  56  58 E5        30.17S
FOND DU LAC    MOSUNNY   73  53  49 N7        30.17F
$$

WIZ022-050-052-272100-
EAST CENTRAL WISCONSIN

CITY           SKY/WX    TMP DP  RH WIND       PRES   REMARKS
STURGEON BAY   PTSUNNY   66  52  59 NW7       30.18S
MANITOWOC      NOT AVBL
SHEBOYGAN      MOSUNNY   72  56  57 NE6       30.17F
$$

LMZ563-521-522-541>543-272100-
LAKESHORE

STATION/POSITION TIME  TEMP    WIND        PRES    VSBY  WAVE
                       AIR SEA DIR/SP/G                  HT/PER
                 (UTC) (F)     (DEG/KT/KT) (MB)    (MI)  (FT/S)
SHEBOYGAN LKSHOR 1900   65 67   80/  7/  8 1022.1F
KEWAUNEE LKSHORE 1900   67     100/  3/  5 1021.0F
NORTHPORT PIER   1900   65     340/  4/  7 1021.3F
N MID LAKE BUOY  1900   62 67  260/  4/  6 1022.3S         0
S GREEN BAY BUOY 1900   67     VRB  2      1022.7F
SISTER BAY LKSHO 1900   69        CALM       N/A
CHAMBERS ISLAND  1900   69      CALM  /  4 1022.0F
MENOMINEE LKSHOR 1900   66     110/  5/  7 1021.9F
$$



USA.gov is the U.S. government's official web portal to all federal, state and local government web resources and services.